sat.trackr.live / text

‹ back to catalog

ONEWEB-0432

NORAD 50502 · 2021-132AK

PAYLOAD ACTIVE UNKNOWN

§ Identity

Operator
Country
UK
Launch date
2021-12-27
Launch site
TYMSC
Launch vehicle
Mass (kg)
RCS (m²)

Purposes: comms

External: N2YO · Heavens-Above · Gunter

§ Orbital elements

Epoch: 2026-09-20T03:44:44.252736Z

Period
109.20 min
Inclination
87.9167°
Eccentricity
0.0001464
Mean motion
13.18686688 rev/d
Perigee alt
1,188.6 km
Apogee alt
1,190.8 km
Semi-major
7,567.9 km
B*
1.5966e-4
RAAN
316.5768°
Arg perigee
96.4617°
Mean anomaly
263.6682°
Rev number
23,409

§ Raw data

ONEWEB-04321 50502U 21132AK  26263.15606774  .00000076  00000+0  15966-3 0  99982 50502  87.9167 316.5768 0001464  96.4617 263.6682 13.18686688234092

JSON: /api/v1/satellites/50502 · /tle

For live sub-satellite position, see the globe view (requires WebGL).

§ Visibility from observer

Set your observer location to see the next 7 days of passes ≥ 10°. The values pass through the URL so the page stays shareable.

No JS? Fill the form by hand. The geolocation button needs JavaScript.